Weather History for Billings, MT

Change the Weather History Date:

Monday, May 13, 2013

  Actual Average Record
Temperature  
Mean Temperature 79 °F 55 °F  
Max Temperature 94 °F 67 °F 94 °F (2013)
Min Temperature 64 °F 43 °F 24 °F (2004)
Degree Days  
Heating Degree Days 0 11  
Month to date heating degree days 119 163  
Since 1 July heating degree days 6211 6540  
Cooling Degree Days 14 0  
Month to date cooling degree days 24 0  
Year to date cooling degree days 24 1  
Growing Degree Days 28 (Base 50)    
Moisture  
Dew Point 37 °F    
Average Humidity 24    
Maximum Humidity 35    
Minimum Humidity 12    
Precipitation  
Precipitation T in 0.07 in 0.75 in (1962)
Month to date precipitation 0.08 0.86  
Year to date precipitation 2.24 4.54  
Snow  
Snow 0.00 in 0.10 in 3.90 in (1995)
Month to date snowfall T 1.4  
Since 1 July snowfall 40.4 54.4  
Snow Depth 0.00 in    
Sea Level Pressure  
Sea Level Pressure 29.77 in    
Wind  
Wind Speed 12 mph (SW)    
Max Wind Speed 38 mph    
Max Gust Speed 46 mph    
Visibility 10 miles    
Events Rain , Thunderstorm    
T = Trace of Precipitation, MM = Missing Value Source: NWS Daily Summary

Daily Weather History Graph

Daily Weather History Graph

Search for Another Location

Airport:

Trip Planner

Search our weather history database for the weather conditions in past years. The results will help you decide how hot, cold, wet, or windy it might be!

Date:

Astronomy

May. 13, 2013 Rise Set
Actual Time 5:44 AM MDT 8:37 PM MDT
Civil Twilight 5:09 AM MDT 9:11 PM MDT
Nautical Twilight 4:25 AM MDT 9:56 PM MDT
Astronomical Twilight 3:33 AM MDT 10:48 PM MDT
Moon 8:32 AM MDT (5/13) 11:48 PM MDT (5/13)
Length of Visible Light 16h 01m
Length of Day
14h 52m
Waxing Crescent, 12% of the Moon is Illuminated
May 13
Waxing Crescent
May 17
First Quarter
May 24
Full
May 31
Last Quarter
Jun 8
New

Hourly Weather History & Observations

Time (MDT) Temp. Dew Point Humidity Pressure Visibility Wind Dir Wind Speed Gust Speed Precip Events Conditions
12:53 AM 70.0 °F 37.9 °F 31% 29.83 in 10.0 mi WSW 15.0 mph - N/A   Partly Cloudy
1:53 AM 69.1 °F 37.9 °F 32% 29.83 in 10.0 mi SSW 15.0 mph - N/A   Clear
2:53 AM 71.1 °F 37.0 °F 29% 29.83 in 10.0 mi West 10.4 mph - N/A   Clear
3:53 AM 68.0 °F 37.9 °F 33% 29.84 in 10.0 mi WSW 13.8 mph - N/A   Clear
4:53 AM 66.9 °F 37.9 °F 34% 29.86 in 10.0 mi SW 11.5 mph - N/A   Clear
5:53 AM 66.0 °F 37.9 °F 36% 29.88 in 10.0 mi SW 10.4 mph - N/A   Partly Cloudy
6:53 AM 66.9 °F 37.9 °F 34% 29.90 in 10.0 mi WSW 12.7 mph - N/A   Scattered Clouds
7:53 AM 68.0 °F 39.0 °F 35% 29.91 in 10.0 mi SW 12.7 mph - N/A   Scattered Clouds
8:53 AM 70.0 °F 39.0 °F 32% 29.92 in 10.0 mi WSW 10.4 mph - N/A   Scattered Clouds
9:53 AM 75.9 °F 41.0 °F 29% 29.91 in 10.0 mi WSW 6.9 mph - N/A   Scattered Clouds
10:53 AM 77.0 °F 43.0 °F 30% 29.89 in 10.0 mi SSW 3.5 mph - N/A   Scattered Clouds
11:53 AM 82.0 °F 41.0 °F 23% 29.86 in 10.0 mi SE 8.1 mph - N/A   Scattered Clouds
12:53 PM 86.0 °F 39.9 °F 20% 29.81 in 10.0 mi SSW 12.7 mph - N/A   Scattered Clouds
2:53 PM 91.0 °F 34.0 °F 13% 29.73 in 10.0 mi West 16.1 mph - N/A   Scattered Clouds
3:53 PM 93.0 °F 34.0 °F 12% 29.69 in 10.0 mi SW 21.9 mph 32.2 mph N/A   Scattered Clouds
4:53 PM 91.9 °F 32.0 °F 12% 29.66 in 10.0 mi SW 20.7 mph 28.8 mph N/A   Scattered Clouds
5:53 PM 87.8 °F 32.0 °F 14% 29.77 in 10.0 mi West 15.0 mph 26.5 mph N/A   Mostly Cloudy
6:53 PM 87.1 °F 35.1 °F 16% 29.64 in 10.0 mi West 13.8 mph - N/A   Scattered Clouds
7:53 PM 84.9 °F 35.1 °F 17% 29.61 in 10.0 mi WSW 9.2 mph - N/A   Partly Cloudy
8:53 PM 81.0 °F 36.0 °F 20% 29.59 in 10.0 mi SSW 4.6 mph - N/A   Partly Cloudy
9:53 PM 78.1 °F 36.0 °F 22% 29.60 in 10.0 mi SW 5.8 mph - N/A   Partly Cloudy
10:53 PM 73.9 °F 34.0 °F 23% 29.60 in 10.0 mi WSW 10.4 mph - N/A   Partly Cloudy
11:05 PM 73.0 °F 34.0 °F 24% 29.71 in 10.0 mi WSW 10.4 mph - N/A Thunderstorm Thunderstorm
11:53 PM 80.1 °F 35.1 °F 20% 29.60 in 10.0 mi NW 28.8 mph 46.0 mph 0.00 in Thunderstorm Thunderstorm